Location: Lewisville
(33.0462°N, 96.9942°W)
Time: 17:22:53
(UTC-06:00)

X-37B - Pass Details

Date: 05 December 2021
Orbit: 334 x 337 km, 45.0° (Epoch: 11 January)

Event Time Altitude Azimuth Distance (km) Brightness Sun altitude
Rises 18:08:17 0° 230° (SW) 2,089 5.8 -9.9°
Reaches altitude 10° 18:10:17 10° 227° (SW) 1,256 4.4 -10.3°
Maximum altitude 18:13:04 68° 145° (SE) 361 0.3 -10.9°
Enters shadow 18:14:52 20° 64° (ENE) 852 1.7 -11.2°
